Weather History for Dallas/Ft Worth, TX

Change the Weather History Date:

Sunday, June 16, 2013

  Actual Average Record
Temperature  
Mean Temperature 85 °F 82 °F  
Max Temperature 96 °F 92 °F 103 °F (1924)
Min Temperature 74 °F 72 °F 54 °F (1989)
Degree Days  
Heating Degree Days 0 0  
Month to date heating degree days 0 0  
Since 1 June heating degree days 0 0  
Since 1 July heating degree days 2045 2284  
Cooling Degree Days 20 17  
Month to date cooling degree days 252 241  
Year to date cooling degree days 641 663  
Since 1 June cooling degree days 252 241  
Growing Degree Days 34 (Base 50)    
Moisture  
Dew Point 68 °F    
Average Humidity 63    
Maximum Humidity 87    
Minimum Humidity 39    
Precipitation  
Precipitation 0.00 in 0.13 in 1.32 in (1968)
Month to date precipitation 1.34 2.19  
Year to date precipitation 14.50 18.44  
Sea Level Pressure  
Sea Level Pressure 29.91 in    
Wind  
Wind Speed 8 mph (SSE)    
Max Wind Speed 18 mph    
Max Gust Speed 21 mph    
Visibility 10 miles    
Events      
T = Trace of Precipitation, MM = Missing Value Source: NWS Daily Summary

Daily Weather History Graph

Daily Weather History Graph

Search for Another Location

Airport:

Trip Planner

Search our weather history database for the weather conditions in past years. The results will help you decide how hot, cold, wet, or windy it might be!

Date:

Astronomy

Jun. 16, 2013 Rise Set
Actual Time 6:19 AM CDT 8:38 PM CDT
Civil Twilight 5:50 AM CDT 9:07 PM CDT
Nautical Twilight 5:15 AM CDT 9:42 PM CDT
Astronomical Twilight 4:37 AM CDT 10:20 PM CDT
Moon 1:34 PM CDT (6/16) 1:04 AM CDT (6/16)
Length of Visible Light 15h 16m
Length of Day
14h 19m
Waxing Crescent, 50% of the Moon is Illuminated
Jun 16
Waxing Crescent
Jun 16
First Quarter
Jun 23
Full
Jun 29
Last Quarter
Jul 8
New

Hourly Weather History & Observations

Time (CDT) Temp. Heat Index Dew Point Humidity Pressure Visibility Wind Dir Wind Speed Gust Speed Precip Events Conditions
12:53 AM 78.1 °F - 69.1 °F 74% 29.92 in 10.0 mi SSE 6.9 mph - N/A   Mostly Cloudy
1:53 AM 77.0 °F - 69.1 °F 76% 29.91 in 10.0 mi SSE 9.2 mph - N/A   Mostly Cloudy
2:53 AM 75.9 °F - 69.1 °F 79% 29.90 in 10.0 mi Calm Calm - N/A   Scattered Clouds
3:53 AM 73.9 °F - 70.0 °F 87% 29.88 in 10.0 mi SE 3.5 mph - N/A   Partly Cloudy
4:53 AM 75.0 °F - 70.0 °F 84% 29.91 in 10.0 mi East 3.5 mph - N/A   Partly Cloudy
5:53 AM 75.0 °F - 70.0 °F 84% 29.94 in 10.0 mi ENE 3.5 mph - N/A   Mostly Cloudy
6:53 AM 75.0 °F - 70.0 °F 84% 29.95 in 10.0 mi ESE 3.5 mph - N/A   Mostly Cloudy
7:53 AM 77.0 °F - 71.1 °F 82% 29.97 in 10.0 mi South 5.8 mph - N/A   Mostly Cloudy
8:53 AM 81.0 °F 84.4 °F 70.0 °F 69% 29.99 in 10.0 mi SW 9.2 mph - N/A   Mostly Cloudy
9:53 AM 86.0 °F 91.5 °F 71.1 °F 61% 29.98 in 10.0 mi SW 9.2 mph - N/A   Scattered Clouds
10:53 AM 89.1 °F 94.1 °F 70.0 °F 53% 29.97 in 10.0 mi SSW 5.8 mph - N/A   Scattered Clouds
11:53 AM 91.0 °F 96.6 °F 70.0 °F 50% 29.97 in 10.0 mi SSW 5.8 mph - N/A   Scattered Clouds
12:53 PM 91.0 °F 95.6 °F 69.1 °F 48% 29.95 in 10.0 mi SW 5.8 mph - N/A   Scattered Clouds
1:53 PM 91.0 °F 95.6 °F 69.1 °F 48% 29.93 in 10.0 mi SSE 9.2 mph - N/A   Mostly Cloudy
2:53 PM 93.0 °F 97.4 °F 68.0 °F 44% 29.90 in 10.0 mi SSW 10.4 mph - N/A   Mostly Cloudy
3:53 PM 93.0 °F 96.4 °F 66.9 °F 42% 29.89 in 10.0 mi South 10.4 mph 19.6 mph N/A   Mostly Cloudy
4:53 PM 95.0 °F 99.0 °F 66.9 °F 40% 29.87 in 10.0 mi SSE 15.0 mph - N/A   Scattered Clouds
5:53 PM 93.9 °F 96.1 °F 64.9 °F 38% 29.86 in 10.0 mi SSE 10.4 mph 20.7 mph N/A   Partly Cloudy
6:53 PM 93.0 °F 94.6 °F 64.0 °F 38% 29.85 in 10.0 mi SSE 11.5 mph - N/A   Partly Cloudy
7:53 PM 91.0 °F 92.6 °F 64.0 °F 41% 29.84 in 10.0 mi SSE 10.4 mph - N/A   Partly Cloudy
8:53 PM 89.1 °F 90.3 °F 64.0 °F 43% 29.85 in 10.0 mi SSE 9.2 mph - N/A   Partly Cloudy
9:53 PM 86.0 °F 87.6 °F 64.9 °F 49% 29.88 in 10.0 mi SSE 8.1 mph - N/A   Scattered Clouds
10:53 PM 84.9 °F 87.1 °F 66.0 °F 53% 29.89 in 10.0 mi SSE 6.9 mph - N/A   Scattered Clouds
11:53 PM 84.0 °F 86.5 °F 66.9 °F 56% 29.89 in 10.0 mi SE 8.1 mph - N/A   Scattered Clouds